Wind_Speed
12 14 15 15 15 15 14 14 13 14 16 18 18 18 18 18 17 17 16 15 15 15 16 15 14 15 15 15 15 15 15 16 16 16 16 16 16 16 15 14 14 14 14 14 14 13 13 15 17 17 16 17 19 20 24 27 26 24 23 22 22 22 22 23 25 29 31 31 31 32 33 34 35 35 34 34 34 32 30 28 28 28 28 26 25
13 15 15 15 16 16 15 14 14 15 18 18 18 17 17 17 16 16 16 16 15 15 15 15 14 14 14 14 14 14 15 15 15 15 15 14 15 15 15 14 14 14 14 13 13 13 14 15 18 19 18 19 20 22 25 28 28 26 25 23 23 23 23 23 25 27 31 32 32 33 32 32 35 36 35 35 35 34 32 30 29 29 29 29 27
14 15 15 15 17 16 14 15 16 18 19 18 18 18 17 16 15 15 16 16 15 14 14 13 14 13 13 13 13 13 14 14 14 15 14 13 14 14 13 13 14 13 13 13 14 14 14 15 17 18 18 19 21 23 26 28 29 29 27 25 23 23 23 23 24 26 29 31 31 32 33 33 34 35 36 36 35 34 33 33 32 30 29 28 28
15 15 16 17 16 15 16 18 19 19 19 18 18 18 17 17 16 15 15 16 15 14 13 12 12 12 13 13 13 13 12 11 12 14 14 13 13 13 12 12 12 12 11 13 13 14 14 14 16 17 18 21 23 25 27 30 31 31 29 26 24 23 23 23 23 25 28 31 31 31 33 33 33 34 35 36 35 34 33 34 33 31 29 28 29
16 17 17 17 16 17 18 19 19 19 19 18 18 18 17 17 16 15 15 15 14 13 12 12 12 12 12 12 12 12 12 11 10 12 14 13 12 13 12 11 12 11 12 14 14 13 14 14 16 18 21 24 25 27 29 31 32 32 30 27 23 23 24 23 23 24 27 31 32 32 33 33 33 34 34 34 36 37 35 34 33 32 30 32 33
18 18 18 17 17 19 20 20 19 19 19 18 18 18 17 16 15 15 14 14 13 12 12 12 12 12 12 12 12 12 12 12 11 11 12 12 12 12 12 12 13 13 13 14 14 14 14 13 15 19 23 25 25 27 31 32 32 32 30 26 23 23 24 24 24 26 27 29 32 33 34 34 35 35 33 32 35 36 37 36 35 33 34 36 37
19 18 18 18 19 21 21 20 19 19 19 19 18 18 17 16 16 15 14 13 13 12 12 12 12 12 11 11 11 12 12 12 12 12 11 12 13 13 12 12 13 14 13 12 13 13 13 11 15 20 23 24 24 27 30 32 33 32 29 26 25 25 27 27 26 27 28 30 32 34 35 35 35 35 34 32 32 32 34 37 38 37 36 36 37
19 19 19 20 21 21 21 20 19 19 19 19 18 17 16 15 15 15 14 14 12 11 11 12 12 12 12 12 12 11 12 13 14 13 12 11 12 12 12 12 12 12 11 11 12 13 14 13 14 19 22 22 24 27 30 31 33 31 27 25 26 27 29 29 28 29 30 32 34 35 35 36 36 36 36 35 33 33 33 35 37 38 38 38 38
21 21 21 21 22 22 21 21 20 19 19 18 17 16 16 15 14 14 14 14 13 11 10 12 13 12 12 12 12 11 12 14 15 14 12 11 11 13 13 12 11 11 11 10 12 14 17 17 15 16 20 22 24 27 29 30 31 30 26 25 26 28 29 30 30 32 33 34 35 35 36 37 37 38 39 37 36 36 35 34 36 37 38 40 41
22 22 22 22 22 22 21 20 20 19 18 17 17 17 16 16 14 13 13 14 13 11 11 12 12 12 12 12 13 13 14 15 15 14 12 12 12 13 13 11 10 11 11 10 12 14 17 21 19 17 20 23 25 29 29 29 30 28 24 23 25 28 30 31 32 33 34 34 34 35 38 39 39 40 42 41 40 40 40 39 40 41 40 41 43
22 21 22 22 22 22 21 21 20 19 18 17 17 16 16 15 14 13 13 14 13 12 12 12 12 12 12 13 13 14 15 15 14 13 12 11 12 13 13 10 9 11 10 10 13 13 15 22 23 20 21 23 27 30 30 30 31 28 23 21 22 26 29 30 31 32 35 35 34 35 38 41 42 43 44 45 44 43 43 43 44 43 42 42 43
22 22 22 22 22 22 21 21 20 19 18 17 16 16 15 14 14 13 14 14 13 13 13 13 13 12 13 13 13 14 14 14 14 13 12 11 11 13 14 10 9 11 11 10 12 12 15 22 23 22 23 24 27 31 31 30 31 29 24 19 18 22 26 27 29 33 37 37 34 35 38 41 45 45 44 43 43 44 44 43 43 42 42 43 43
22 22 22 22 22 22 21 21 20 19 18 17 16 16 15 15 14 14 14 14 13 13 13 13 13 13 13 13 13 14 14 14 14 13 12 12 12 13 13 10 9 11 11 11 11 11 16 23 23 22 25 26 28 30 30 30 31 30 26 20 16 19 24 25 26 31 35 36 35 36 37 41 46 46 43 42 43 44 45 44 42 42 42 43 43
23 22 22 21 21 21 21 21 20 19 18 18 17 16 15 15 15 15 15 14 13 13 13 12 13 13 13 13 13 14 14 14 14 13 13 12 12 12 12 10 9 10 11 11 10 11 18 22 22 23 26 28 29 29 28 29 29 30 29 24 18 20 26 28 29 32 35 36 36 36 36 41 46 47 45 44 44 45 46 46 44 43 42 42 43
23 22 22 22 21 20 20 20 20 19 19 17 17 17 16 16 16 15 14 14 13 12 12 12 12 12 13 13 13 13 14 14 14 14 13 12 10 11 10 8 8 8 12 12 8 11 18 21 22 24 26 29 29 27 25 26 27 29 31 27 22 23 27 30 31 34 36 36 35 33 36 42 46 47 48 48 47 47 47 46 44 42 42 41 41
23 23 23 22 21 20 20 20 20 19 19 18 18 18 17 16 16 15 14 13 13 12 12 12 11 11 12 12 13 13 14 14 14 14 14 12 9 10 8 5 5 6 11 12 9 11 18 21 22 25 27 29 28 24 22 24 27 29 32 31 27 27 29 31 33 34 35 36 35 32 36 44 47 47 50 50 49 50 49 46 43 41 40 39 39
24 24 23 22 21 21 21 21 20 20 19 19 19 19 18 17 16 15 15 14 13 12 12 11 11 10 10 11 12 13 13 14 14 14 14 13 11 10 8 4 3 3 6 11 11 12 17 20 22 24 26 28 26 22 21 24 28 30 32 34 33 32 33 34 35 35 34 35 34 33 38 46 48 50 52 52 51 50 49 47 44 40 38 37 38
25 24 23 23 22 21 21 21 21 20 19 19 19 19 18 17 15 14 14 13 12 12 11 11 12 11 10 10 12 13 13 13 14 13 14 14 12 12 11 8 5 3 4 9 11 13 17 19 21 24 25 25 24 21 21 25 28 30 33 35 35 35 36 37 37 37 36 35 34 35 41 47 50 52 54 54 53 50 46 45 43 39 37 37 37
25 25 24 23 22 21 21 21 21 20 20 20 20 19 18 17 15 14 13 12 10 9 8 9 11 11 11 11 12 12 12 13 13 14 14 14 13 13 13 12 10 8 6 8 9 12 15 17 19 22 23 23 24 23 23 25 28 30 33 35 35 36 37 37 38 38 37 37 35 38 44 48 52 54 56 56 55 50 44 42 40 38 38 37 35
26 25 24 23 23 22 21 21 21 20 20 21 20 19 19 17 15 13 11 10 9 8 7 7 8 10 11 12 12 12 13 13 14 14 14 13 13 13 13 13 13 11 10 9 9 10 14 15 16 19 22 25 26 25 24 26 28 29 32 34 35 36 36 36 37 37 37 37 37 40 46 51 54 57 58 58 56 51 45 42 39 37 37 35 33
26 26 25 24 23 22 22 22 21 21 21 21 20 19 19 17 14 12 10 10 10 9 7 7 7 7 9 10 11 12 13 14 14 14 13 13 12 12 13 13 13 13 12 12 11 12 15 15 16 20 24 27 29 28 27 27 27 29 32 34 34 34 34 35 38 38 37 38 38 42 47 52 55 58 59 59 57 52 48 46 42 36 34 32 31
27 27 26 25 24 23 23 22 22 22 21 21 20 19 18 16 14 12 13 12 11 8 6 5 3 4 6 7 8 10 12 13 13 13 12 11 11 11 12 13 13 14 14 13 14 14 15 16 19 23 26 27 29 30 30 29 28 28 30 32 33 32 31 34 38 38 38 38 39 43 48 52 56 59 59 60 58 53 50 48 43 39 35 29 24
28 27 26 25 24 24 24 23 22 23 22 21 20 19 17 15 13 13 12 12 11 9 7 6 3 2 3 3 4 7 10 11 12 12 11 10 10 10 11 12 13 14 14 14 15 14 14 18 21 24 26 27 29 30 30 29 28 27 28 30 31 30 31 35 38 38 38 39 40 43 48 51 55 58 59 60 58 54 51 48 44 42 39 26 13
28 27 27 26 25 25 25 24 23 23 21 21 21 19 17 15 13 12 11 9 8 7 6 5 4 3 2 2 1 4 7 9 11 11 10 10 10 10 11 12 13 13 13 14 14 14 15 18 21 23 25 26 27 29 29 29 28 28 29 31 32 32 32 36 38 38 38 39 41 43 46 50 53 55 57 58 56 54 52 49 46 46 42 27 15
29 28 27 27 26 26 25 23 23 22 21 20 20 18 17 15 11 10 8 6 5 5 5 5 4 4 3 3 2 1 4 7 10 10 10 9 10 10 11 12 12 13 13 13 13 12 14 17 19 21 23 25 26 27 28 28 29 30 31 31 32 32 33 36 38 38 38 39 41 43 44 48 50 52 55 57 55 54 54 52 51 51 45 29 16
30 29 27 27 26 26 25 24 23 22 21 19 18 17 15 12 9 9 9 8 8 7 6 6 5 4 4 4 3 3 5 7 9 9 8 8 9 10 11 12 12 12 13 12 12 13 15 17 19 22 23 24 24 26 27 28 30 31 31 32 32 32 33 36 37 37 37 39 41 41 43 46 47 50 55 57 56 55 55 55 54 54 51 40 26
30 28 27 26 26 25 25 24 23 22 20 18 16 14 12 10 9 9 9 9 9 8 7 7 6 5 5 4 3 3 6 9 9 8 7 7 8 9 11 12 12 12 13 13 14 16 17 19 20 22 23 22 23 26 28 29 31 31 32 33 33 32 33 35 36 36 37 39 40 41 43 45 46 48 54 57 56 54 54 55 54 54 54 51 42
30 28 27 26 26 26 26 25 23 22 19 16 13 11 10 11 11 11 12 12 11 10 9 8 8 6 4 5 5 4 7 10 8 6 5 6 8 9 11 13 13 13 14 15 17 18 19 20 21 22 22 23 24 27 29 29 30 31 32 33 33 33 34 36 37 38 38 38 39 41 43 45 46 46 51 55 55 54 53 53 54 54 54 54 52
29 28 27 27 27 26 26 25 23 21 18 15 13 13 13 13 13 14 16 15 14 14 12 11 12 10 7 7 9 8 8 8 6 5 5 6 7 8 11 12 13 15 17 17 18 19 20 21 22 22 23 23 25 28 29 29 30 30 31 33 33 33 35 37 37 38 38 37 39 41 43 45 46 45 48 53 54 54 53 52 53 54 54 54 54
29 28 28 27 27 26 25 24 21 20 18 16 16 16 16 16 16 16 17 17 15 16 14 11 11 12 10 9 10 9 7 5 4 4 4 5 7 8 9 11 14 17 18 18 18 18 19 21 21 21 23 24 25 27 28 28 29 30 31 32 32 33 35 36 37 38 37 36 38 40 41 44 45 44 46 51 52 52 53 52 51 52 53 53 53
30 29 28 27 26 25 25 23 19 18 18 17 16 17 18 18 16 14 14 16 15 14 13 10 9 10 9 7 7 7 5 4 3 3 4 5 6 7 7 9 13 16 17 18 19 18 18 20 20 20 22 23 24 26 27 27 27 28 30 31 31 32 34 35 37 38 36 35 37 39 40 42 44 43 45 49 49 50 51 51 50 51 52 51 51
29 27 27 27 25 24 24 22 18 17 18 17 15 16 18 20 18 12 11 13 12 11 11 9 8 8 8 5 5 5 4 3 3 3 4 5 5 6 6 8 11 14 15 17 18 18 18 17 18 19 20 21 23 24 25 26 26 27 28 30 30 31 33 34 35 37 35 34 36 38 39 40 42 41 43 47 47 47 49 51 49 49 50 50 50
29 27 26 26 25 23 23 23 19 17 18 17 15 14 14 16 15 11 9 10 10 9 9 9 7 7 6 5 5 4 3 3 3 3 4 5 6 6 6 6 9 11 13 14 16 17 17 16 17 18 19 20 22 23 24 24 25 26 27 28 29 30 31 32 34 35 34 33 35 37 37 39 41 40 41 45 46 44 46 49 48 48 49 49 49
29 28 27 27 25 22 22 22 20 18 18 18 16 14 13 12 10 9 8 8 7 8 8 7 6 6 5 4 5 4 4 4 4 4 4 5 6 7 6 5 6 8 11 13 14 15 15 15 15 17 18 19 20 22 22 23 24 26 27 27 28 28 30 31 33 34 33 32 34 36 36 37 39 39 38 42 44 44 44 47 47 46 47 47 47
30 27 24 25 26 23 20 20 20 19 18 18 17 15 14 13 12 12 10 8 7 6 5 5 5 5 5 5 5 5 5 4 4 5 5 6 7 7 6 5 5 7 9 11 12 12 13 14 14 15 17 18 19 20 21 21 23 25 26 27 28 29 29 30 32 33 33 32 33 34 35 36 37 37 36 39 42 42 42 44 45 44 44 45 46
28 25 21 21 24 25 20 17 19 19 18 17 17 16 15 14 14 12 9 8 7 5 6 7 6 5 7 8 7 6 6 6 7 7 7 6 7 7 6 6 7 7 8 8 11 11 12 12 13 14 15 16 18 20 20 20 22 23 25 26 28 29 29 30 30 31 31 32 32 33 34 36 36 36 35 36 39 40 39 41 43 42 43 43 44
25 24 21 19 21 24 21 17 17 18 17 17 17 16 15 15 14 12 10 10 9 8 8 9 9 9 9 10 9 8 8 8 9 9 7 7 8 8 8 8 8 7 7 8 11 12 12 12 12 13 14 15 17 19 19 19 20 22 24 25 27 28 29 29 29 29 29 30 31 32 33 34 35 34 33 34 37 37 37 38 39 39 40 42 42
22 22 22 20 19 20 20 18 17 18 18 18 17 15 15 15 15 15 14 12 12 11 10 10 11 12 12 11 11 9 9 9 10 9 7 7 8 9 9 9 9 9 8 9 12 12 12 12 12 13 13 14 16 17 17 18 19 21 23 24 25 27 28 29 29 29 28 29 30 31 31 32 33 32 30 31 33 35 35 36 37 36 37 39 40
22 19 21 21 21 19 18 18 18 19 18 18 17 16 16 16 15 15 15 13 12 12 12 11 12 13 13 13 12 9 10 10 10 8 7 8 9 11 11 10 10 10 10 11 12 12 12 12 12 13 13 14 15 16 16 17 18 20 21 23 24 26 27 28 29 29 28 28 28 29 30 31 32 31 28 28 30 32 33 33 34 34 33 34 36
23 20 19 20 22 21 19 18 19 19 20 20 18 16 16 16 16 15 15 14 14 14 13 13 13 12 12 13 14 13 13 12 9 7 8 10 11 12 12 12 12 12 12 13 13 12 12 12 13 13 14 15 16 16 16 17 18 19 20 22 23 24 25 27 27 28 28 27 26 27 28 29 30 30 27 25 27 29 30 31 31 32 31 31 31
23 21 20 19 20 21 21 19 18 18 19 20 19 18 17 16 17 16 15 14 14 14 14 14 14 13 13 14 16 17 16 14 10 10 13 14 14 13 13 14 14 14 13 13 13 13 13 13 14 15 16 17 17 17 17 17 18 18 19 20 22 23 24 25 25 26 26 27 26 25 26 27 28 29 28 25 24 25 27 28 29 30 30 29 28
22 22 21 20 20 21 22 20 18 17 18 19 19 19 18 17 17 17 17 16 15 15 15 15 15 14 14 16 17 18 19 18 17 19 21 19 16 15 15 15 15 15 15 14 14 14 15 15 15 16 18 19 18 17 17 17 18 18 18 19 21 22 23 23 24 24 25 25 25 25 25 25 25 26 26 25 23 23 24 25 26 27 28 29 28
22 21 21 21 21 22 22 21 19 17 18 18 18 18 18 18 17 17 17 17 17 17 17 17 16 15 16 17 18 19 20 20 21 21 21 20 17 16 16 16 16 15 15 14 13 14 15 15 15 17 19 19 19 17 17 17 17 17 17 17 19 22 22 22 23 24 24 24 24 24 24 24 24 24 24 24 23 22 22 23 24 24 25 26 26
22 21 21 22 24 24 23 22 20 19 18 18 18 18 19 19 18 18 17 18 18 19 19 19 18 18 18 18 20 20 20 20 20 20 20 19 19 18 17 16 15 15 16 16 15 16 17 17 17 18 19 19 18 18 17 18 18 18 17 16 17 20 21 21 21 22 23 23 24 23 23 23 23 23 22 23 23 21 20 21 22 23 22 22 23
22 22 21 21 22 24 25 24 23 21 20 20 19 19 20 20 20 19 19 19 18 18 18 19 19 19 19 20 21 22 22 21 22 22 21 20 19 18 17 16 16 17 18 18 17 17 17 18 18 19 19 19 17 17 17 18 18 19 18 16 15 18 20 20 20 21 22 23 23 23 22 21 22 22 22 21 21 21 19 18 20 21 22 22 21
22 22 22 20 20 20 22 23 23 23 22 22 22 21 21 21 21 21 21 20 20 19 19 19 19 19 20 20 21 22 22 21 20 19 19 18 17 17 16 16 17 18 18 18 18 18 18 19 20 20 20 20 18 17 17 17 18 18 19 17 15 17 20 20 20 20 21 21 22 22 22 21 20 20 20 20 20 19 18 17 17 19 22 22 19
22 22 21 20 19 18 19 20 22 22 22 22 22 22 22 22 22 22 22 22 22 21 21 20 20 20 20 20 21 21 22 22 20 19 18 19 19 18 18 17 17 18 18 18 19 19 20 20 22 23 23 22 21 20 19 18 18 18 19 18 16 18 20 21 20 20 20 20 20 21 21 21 20 19 19 19 18 18 18 16 15 16 20 21 18
22 22 21 20 20 19 18 19 20 21 22 22 22 22 22 22 21 21 22 22 22 22 22 22 22 22 21 21 21 21 22 22 22 21 21 21 21 20 20 20 20 21 21 21 21 21 22 23 24 25 25 24 23 22 23 22 21 19 19 19 18 20 22 22 20 20 20 20 19 20 20 20 19 19 17 17 17 17 17 16 14 13 16 19 17
21 22 22 21 20 20 19 19 20 21 22 22 22 22 22 22 22 22 21 21 21 21 22 22 22 22 22 22 22 22 22 22 22 22 22 22 21 21 21 21 21 21 22 23 23 25 26 26 25 25 25 26 26 25 26 26 25 22 21 20 20 20 22 22 21 20 20 20 20 19 19 19 19 18 17 17 17 16 15 15 14 12 14 16 15
22 21 21 22 22 21 20 20 20 20 20 21 22 22 22 22 22 22 22 22 22 21 21 21 21 22 22 22 22 22 23 23 23 23 23 23 23 22 22 22 23 23 23 24 25 26 27 27 28 28 27 26 27 28 29 29 28 25 23 22 21 21 21 21 20 20 20 21 21 20 19 19 19 18 18 17 16 16 14 14 13 12 13 15 14
25 22 21 20 21 22 22 21 21 21 20 21 21 22 22 22 22 22 22 23 23 23 22 22 22 22 22 22 22 22 22 22 22 22 22 22 22 22 22 22 23 23 23 23 22 23 23 25 27 29 28 28 29 31 31 30 30 28 25 24 24 23 21 21 20 20 20 21 21 21 20 19 19 19 18 17 16 16 15 14 13 12 12 13 13
Wind_Direction
126 122 123 127 126 124 122 118 118 121 125 128 129 129 127 125 121 117 115 111 108 106 101 96 94 93 92 90 88 86 84 82 79 76 71 68 68 66 62 57 53 48 43 39 36 32 27 17 10 9 13 14 16 19 17 14 11 6 357 350 346 341 336 330 320 315 318 322 321 324 330 331 331 333 333 331 330 329 327 327 325 319 313 305 297
126 125 128 129 125 122 122 121 123 128 131 132 131 129 127 126 124 122 118 112 108 106 102 97 94 93 91 89 87 85 84 83 80 77 72 67 64 60 56 53 49 46 41 35 34 35 29 18 10 12 13 11 14 15 11 7 5 1 356 350 344 340 335 330 324 318 318 323 326 327 330 330 329 333 334 329 328 329 328 326 321 315 312 309 304
130 129 130 127 123 123 124 126 130 132 133 133 130 127 125 123 123 123 119 112 107 104 101 99 98 96 91 87 85 83 82 84 84 80 74 70 65 55 48 46 47 44 40 35 33 35 34 19 9 12 12 11 15 14 6 3 2 358 355 351 344 338 335 331 326 323 321 322 326 327 328 328 327 329 330 327 327 327 323 320 318 316 316 315 311
133 132 131 129 127 128 130 133 137 137 137 136 133 131 129 126 125 122 117 111 104 98 95 97 97 95 92 87 83 81 80 82 86 82 72 65 66 61 49 43 47 45 38 39 35 32 32 18 5 8 9 10 14 10 4 2 0 357 354 351 344 338 336 335 332 328 324 323 324 325 326 326 324 325 327 327 326 324 320 318 318 318 317 312 303
135 135 133 131 131 135 138 141 142 140 139 138 136 134 132 129 127 123 119 115 109 103 100 100 97 92 90 86 82 80 76 72 74 78 72 60 55 59 55 44 45 47 41 39 38 33 32 16 358 0 5 6 8 6 3 1 359 357 355 350 346 342 340 339 336 332 328 326 324 325 325 325 324 325 327 326 324 322 320 318 318 317 314 308 303
139 139 137 137 139 144 146 146 145 143 142 140 137 134 130 127 124 120 117 115 112 110 105 100 96 90 86 84 81 78 76 71 62 63 71 69 54 48 52 46 40 44 41 36 32 30 32 16 350 353 2 1 1 2 359 358 357 357 356 354 352 349 346 342 338 335 332 328 326 326 326 326 325 325 325 325 323 322 320 318 317 316 314 312 311
143 143 143 143 145 148 150 148 147 145 143 141 139 137 133 130 126 119 112 107 105 106 103 96 92 89 85 83 78 74 73 72 64 55 58 70 65 51 47 45 41 41 38 33 27 22 29 18 349 351 0 356 355 359 357 356 357 357 356 357 356 353 351 347 341 338 335 332 330 329 327 326 325 324 324 324 322 321 321 319 316 315 315 314 312
147 146 146 145 148 151 151 150 149 147 146 145 143 142 139 136 133 126 118 109 101 98 99 96 92 90 87 83 78 75 72 67 63 58 53 60 68 62 50 43 41 40 35 29 21 18 27 24 356 350 355 353 354 359 358 357 357 356 355 357 357 353 350 348 344 341 338 336 334 332 329 327 327 325 325 326 324 322 322 319 314 314 314 312 309
149 150 151 151 153 155 153 152 152 150 149 147 145 142 137 134 132 129 125 117 108 102 99 95 91 88 86 81 76 72 68 63 58 55 54 56 65 70 60 44 35 35 35 24 9 9 19 20 6 351 350 353 355 358 359 360 358 354 354 358 357 352 348 346 344 342 340 338 335 334 332 330 329 328 326 325 323 320 320 317 314 312 311 308 306
152 155 157 158 158 157 155 154 152 150 149 147 145 142 137 135 132 130 130 125 117 112 104 96 90 84 80 75 71 64 58 57 52 49 54 58 64 73 68 48 32 31 34 21 2 360 4 6 6 359 352 352 354 357 359 0 360 355 352 358 358 351 346 345 344 343 341 337 335 335 334 333 332 330 327 323 320 318 317 315 312 311 310 307 305
154 156 159 160 159 158 156 154 151 150 148 145 144 143 139 138 136 133 130 125 121 115 105 97 89 81 75 68 64 60 55 53 50 46 50 57 65 74 70 51 29 27 31 17 2 357 354 357 0 0 357 352 351 355 358 358 358 354 350 358 359 349 346 345 343 343 342 338 335 336 335 334 333 332 329 327 324 320 317 314 312 310 308 305 302
155 156 157 157 158 158 157 155 152 149 147 146 145 141 139 137 136 135 131 125 122 116 106 98 89 80 74 67 61 58 55 52 50 44 46 55 64 72 68 52 27 25 27 16 4 352 345 352 356 358 358 353 349 352 354 354 355 352 350 358 358 347 345 343 337 338 342 341 337 336 335 334 334 333 333 332 328 324 320 316 313 311 306 301 296
153 153 152 153 156 157 156 154 151 149 149 148 144 142 142 141 139 136 131 127 124 118 107 98 90 81 74 68 62 59 55 51 49 44 44 54 63 66 63 47 25 21 16 10 2 338 336 350 356 356 354 351 348 349 350 350 349 349 352 357 355 346 344 340 335 338 344 342 336 334 335 335 336 337 338 337 332 328 324 319 315 311 304 299 293
151 151 149 151 153 152 152 154 153 152 150 147 145 146 146 141 136 131 126 124 121 116 110 101 92 84 76 70 63 60 56 51 49 45 44 51 58 61 54 36 24 14 2 7 4 329 333 349 355 353 350 348 348 348 348 347 346 349 353 354 354 350 343 338 337 338 341 341 336 332 332 333 335 339 341 340 335 329 325 320 316 311 305 299 293
151 152 151 151 150 150 154 157 154 151 149 148 149 149 143 138 133 128 124 123 117 113 111 105 95 85 78 72 65 61 56 52 50 46 45 49 54 63 58 36 31 11 351 7 12 326 333 350 353 352 349 347 349 350 349 349 350 355 357 355 354 352 343 340 340 338 338 339 336 332 330 332 337 340 342 342 337 331 326 322 318 314 308 303 296
152 153 152 152 151 151 155 156 153 151 152 152 152 148 143 139 136 131 127 124 118 114 110 104 100 91 83 74 66 61 57 53 51 47 46 45 45 61 64 41 46 28 352 3 8 330 336 348 350 350 348 345 348 351 352 354 357 1 1 357 355 351 345 343 343 341 340 338 336 333 330 333 339 342 343 342 338 334 330 325 321 318 311 304 298
155 154 153 153 154 154 155 156 154 153 154 154 153 150 145 140 135 131 128 123 116 112 107 102 99 92 85 79 70 63 56 52 50 46 46 44 38 49 59 39 56 75 9 8 4 337 338 347 347 346 344 344 348 352 354 357 360 2 0 356 353 349 346 346 346 343 341 338 337 335 331 335 342 343 343 342 340 337 332 326 324 321 312 305 300
156 154 154 155 156 155 155 155 154 152 154 155 153 149 142 136 132 129 125 118 110 106 103 100 96 89 82 76 70 64 57 51 48 43 42 40 36 42 52 45 38 61 47 27 10 345 342 347 343 340 342 348 354 356 356 357 360 0 356 352 349 345 344 346 345 342 341 340 340 334 332 338 343 342 342 342 342 341 336 329 327 321 312 308 304
156 156 155 155 154 154 154 154 151 152 157 157 152 147 141 137 134 130 123 114 108 105 102 98 95 88 79 71 64 60 56 50 45 41 37 34 33 37 44 44 36 29 35 38 18 351 346 345 337 337 348 360 4 4 2 2 2 358 354 350 346 343 344 345 343 342 342 342 339 334 334 340 343 342 343 343 343 344 342 336 333 327 318 312 307
156 156 155 154 153 152 154 154 154 157 161 158 152 148 144 138 130 121 115 118 128 136 130 108 91 80 71 64 57 50 47 44 40 35 30 26 27 30 34 37 34 26 23 32 24 355 345 342 338 347 4 13 11 8 5 5 2 357 354 352 347 345 346 345 343 343 343 341 338 336 338 343 345 344 344 344 345 348 347 344 341 335 326 316 308
156 155 154 153 153 153 155 157 159 161 161 157 153 149 144 137 129 126 136 150 152 141 123 100 78 63 53 46 41 35 32 33 34 30 23 18 19 25 29 30 29 24 21 27 25 1 346 347 356 7 15 16 13 8 3 1 359 355 353 351 346 344 346 345 343 344 343 342 340 339 341 345 347 347 345 345 348 352 352 348 345 342 334 322 310
156 155 153 153 154 157 159 161 163 162 160 158 156 152 145 138 138 150 164 165 152 133 119 107 85 54 35 22 14 12 13 17 23 23 17 14 15 21 28 29 26 22 19 19 17 4 354 360 10 14 15 13 9 4 1 360 358 355 351 348 345 346 346 344 344 345 345 345 343 341 344 347 348 347 347 347 350 354 354 352 349 348 345 333 313
156 155 155 156 158 161 162 164 165 163 162 161 157 152 145 140 145 152 151 140 130 128 135 138 128 93 60 27 348 346 353 0 10 15 13 13 15 20 26 29 25 19 15 15 12 6 5 12 15 13 10 7 4 360 358 359 359 355 351 349 350 351 348 345 346 347 347 348 346 344 346 348 348 348 348 349 353 356 356 355 355 356 356 352 342
156 156 158 159 162 164 166 167 167 166 165 161 157 153 147 145 148 144 127 114 113 120 130 134 130 130 128 127 327 336 343 345 354 4 9 12 16 17 22 27 23 14 12 14 12 7 11 16 14 7 4 2 360 357 355 356 357 355 352 351 353 353 350 348 349 349 349 349 348 348 349 350 350 350 350 352 356 359 360 1 3 5 7 12 25
159 160 161 164 167 169 170 170 169 167 164 160 159 156 148 145 151 146 136 140 148 145 149 154 152 160 165 165 193 272 311 319 333 352 4 9 11 13 18 22 18 11 11 13 12 10 15 17 12 5 2 0 358 355 353 354 357 357 355 354 354 353 351 350 350 351 351 351 351 351 351 351 351 353 354 356 0 2 3 6 8 12 18 27 41
162 163 166 169 171 171 171 170 169 168 164 159 158 152 142 143 156 157 155 163 168 165 166 166 167 176 177 175 195 239 271 295 319 341 357 6 9 11 19 22 17 12 13 15 16 17 19 20 13 5 2 359 355 353 353 355 358 359 357 356 356 355 353 351 352 352 352 352 354 354 353 353 353 355 358 1 4 5 6 8 10 15 22 29 36
164 165 168 169 167 169 172 171 169 167 161 156 154 147 144 156 167 165 165 170 173 173 171 170 176 186 188 187 185 220 264 287 314 337 349 3 10 13 21 24 20 19 23 26 28 24 20 20 16 6 359 357 354 353 355 357 359 360 358 357 357 357 355 353 354 354 353 355 357 357 356 356 356 357 1 5 6 7 9 11 12 16 22 27 32
166 166 166 165 165 170 174 172 168 164 156 152 156 159 165 173 175 177 181 180 177 176 175 179 182 178 184 195 178 189 251 275 303 330 344 3 14 17 24 27 27 27 27 26 27 24 19 18 15 4 356 355 354 354 356 359 359 359 358 356 358 359 357 355 357 358 357 358 1 360 359 360 359 358 1 6 9 10 11 14 16 18 22 28 30
167 166 165 166 168 172 174 172 168 163 154 156 169 176 178 182 189 194 192 186 183 182 184 190 190 182 186 200 192 197 235 262 291 324 341 3 15 20 26 30 32 33 28 22 20 20 18 17 12 1 355 355 353 353 356 358 358 358 357 357 359 360 358 356 358 359 359 2 3 2 1 2 2 1 2 5 9 13 14 16 18 20 23 27 30
168 166 166 169 171 173 175 170 165 163 161 168 182 187 186 191 202 207 202 197 196 196 199 209 207 201 210 217 207 211 237 260 286 319 338 357 10 18 24 28 31 30 26 20 18 17 15 13 6 355 353 354 353 352 355 357 357 357 355 357 1 0 357 358 359 359 1 6 7 4 4 5 4 4 5 5 7 12 16 18 20 22 24 27 29
166 166 169 171 171 175 174 166 164 169 169 174 191 197 195 199 206 209 203 203 206 209 214 221 217 214 224 229 216 219 240 261 278 310 336 350 360 7 14 25 31 27 20 14 13 15 15 9 358 351 352 353 351 352 354 356 357 356 354 357 2 0 357 360 2 0 3 9 9 6 8 8 6 6 8 7 7 10 16 21 23 25 27 29 30
166 167 170 170 171 175 171 162 167 178 174 177 197 207 204 206 211 209 200 199 202 208 213 215 213 215 222 224 219 226 238 253 276 309 327 337 349 351 354 14 28 27 18 9 6 10 13 3 350 348 351 351 349 351 354 355 356 356 355 358 2 360 358 2 4 2 4 10 10 8 10 10 9 8 9 10 9 11 15 20 25 27 28 30 32
168 167 170 171 173 175 170 164 170 181 179 183 199 210 207 206 206 203 199 201 205 209 212 214 216 219 223 226 229 235 243 256 279 313 325 330 338 340 342 6 25 26 17 5 1 5 4 354 346 347 348 347 348 350 353 355 355 355 356 360 2 1 2 7 7 5 8 13 12 11 12 12 11 11 11 12 13 14 16 20 24 28 29 31 33
169 168 173 176 174 172 172 172 174 181 185 188 195 204 207 209 214 216 214 217 222 219 217 223 227 228 235 246 251 254 261 271 290 312 321 327 333 333 337 358 28 33 19 4 358 357 353 346 344 343 343 345 347 348 351 353 354 355 359 3 4 3 6 11 11 8 10 15 15 14 15 15 13 12 13 14 15 17 19 20 24 28 31 32 34
169 169 177 182 175 167 172 181 181 181 189 193 193 198 205 216 232 240 236 235 235 229 231 243 243 244 262 280 282 280 281 288 301 307 311 322 330 334 341 352 17 38 28 4 347 341 341 341 341 339 339 343 344 345 350 352 353 356 2 6 6 6 9 13 13 10 11 16 17 17 18 18 16 15 16 16 16 19 21 22 24 29 32 34 34
169 169 178 188 180 168 169 185 189 187 190 194 196 197 199 206 221 233 238 242 244 248 260 266 261 261 272 282 291 290 287 298 311 309 307 313 319 328 346 354 1 24 26 353 328 326 332 336 336 334 335 338 339 343 349 351 350 355 3 8 8 8 11 14 13 11 12 15 18 19 20 20 18 18 19 19 18 20 23 24 25 29 33 35 36
170 172 178 186 181 173 172 181 193 195 194 194 198 200 199 203 210 215 221 229 236 243 258 265 261 253 255 271 290 291 286 298 309 306 303 311 318 325 339 346 349 4 6 333 315 318 326 329 328 329 332 333 334 339 346 348 348 353 2 7 9 10 11 14 14 12 12 14 17 20 22 21 18 17 21 22 20 21 25 26 26 28 31 35 37
168 180 185 180 176 181 185 186 192 198 197 196 198 200 202 206 210 211 213 220 227 229 232 245 258 261 265 278 288 280 272 285 297 297 302 316 319 319 323 328 333 342 337 315 307 310 317 319 319 322 326 327 328 334 342 346 347 353 359 4 7 9 11 13 14 13 13 15 17 19 21 22 18 16 21 25 23 21 25 28 27 27 28 30 34
167 185 196 185 175 182 193 195 196 199 200 199 199 201 204 208 211 213 214 216 223 226 224 228 245 260 272 281 279 262 257 274 287 293 303 311 309 309 313 317 320 318 305 296 297 303 308 310 310 314 317 319 322 331 339 342 344 350 356 0 3 6 9 10 12 12 13 15 16 18 20 22 19 15 20 27 27 24 25 27 28 28 27 27 32
176 188 203 196 185 183 188 195 201 203 202 201 200 202 207 210 212 215 218 218 221 228 232 233 237 245 257 267 267 260 262 273 281 289 299 302 300 299 297 293 291 290 286 286 291 297 299 300 301 303 307 310 318 328 336 338 340 345 350 354 358 1 5 8 9 10 12 14 16 17 19 21 19 15 17 24 29 29 29 29 28 28 28 28 29
187 193 202 204 198 192 189 192 200 206 207 206 204 204 209 214 214 217 221 223 225 229 235 238 241 242 245 253 259 263 266 268 264 267 277 282 279 275 275 275 276 278 279 282 286 287 288 291 294 296 300 307 317 326 330 332 335 339 342 346 350 355 1 5 5 6 9 12 14 16 19 21 19 16 15 20 27 31 33 33 30 28 27 28 27
192 197 202 202 200 199 197 196 200 206 209 210 208 207 210 216 219 220 223 225 227 231 235 240 244 246 247 250 255 261 265 266 265 267 273 276 271 264 263 268 272 274 275 278 282 282 283 288 292 293 296 304 313 318 320 325 331 335 336 337 339 344 353 360 2 2 5 9 11 14 17 20 20 17 15 17 22 28 33 34 32 29 26 26 26
195 200 205 204 200 200 201 201 204 207 209 211 212 212 211 214 220 225 228 230 232 233 236 239 242 246 250 254 257 260 263 267 268 270 275 277 273 263 257 259 264 268 272 275 278 278 280 284 287 287 291 300 308 312 315 320 326 329 331 331 330 334 343 353 357 358 1 5 7 9 13 18 20 18 16 17 18 23 30 33 32 30 27 24 23
199 201 206 208 208 207 207 207 208 210 211 213 216 218 217 217 219 224 230 234 237 239 241 242 242 244 247 252 256 259 261 264 267 270 273 275 273 268 265 265 263 263 265 269 270 270 273 277 281 285 292 302 312 316 317 318 320 321 324 326 323 323 331 344 352 354 356 0 3 4 7 13 16 16 16 18 17 18 24 28 29 28 27 23 20
201 202 203 206 207 209 211 213 212 213 214 216 217 220 222 223 223 224 228 233 237 241 245 248 249 248 247 249 254 258 260 262 267 269 269 268 265 264 264 263 261 261 266 270 271 272 274 277 283 291 300 310 319 323 321 318 315 314 317 321 317 312 319 334 345 348 349 354 358 359 1 7 12 12 12 15 18 18 19 23 27 28 26 22 19
203 202 203 204 204 206 211 213 213 213 216 218 220 221 223 225 226 228 230 232 235 238 242 247 251 252 251 251 254 258 262 265 268 269 268 267 267 268 267 263 262 264 266 269 272 275 276 277 283 292 302 311 319 323 322 320 318 314 314 316 310 302 309 324 335 339 341 346 351 353 356 0 6 8 8 11 15 16 15 17 23 28 26 20 15
204 203 204 206 206 207 210 213 214 213 215 219 222 224 225 227 230 233 234 235 237 239 240 242 246 249 251 252 253 257 261 264 265 264 263 263 265 268 268 266 265 265 265 267 271 276 277 279 285 292 299 306 313 319 322 322 322 319 317 315 307 299 304 316 324 327 332 337 341 345 350 354 358 1 2 5 9 13 14 13 17 27 29 21 10
206 206 207 208 210 211 212 214 216 216 217 220 224 226 228 230 232 235 237 239 242 245 246 246 245 246 247 250 252 254 258 261 263 262 261 260 260 261 262 261 262 265 269 272 273 273 275 280 288 294 298 300 304 312 318 320 320 319 319 316 310 305 306 311 315 318 321 326 330 334 340 347 352 354 356 359 2 6 10 9 8 18 26 20 10
209 210 210 211 212 213 214 216 219 220 221 223 226 228 231 232 233 235 237 240 244 248 250 250 249 248 247 249 251 252 254 256 259 260 262 263 263 263 263 264 265 268 272 275 276 273 272 276 283 291 296 297 298 302 308 311 312 314 316 316 313 310 310 310 311 312 313 316 319 324 329 335 342 346 350 354 355 357 1 4 3 9 19 15 6
211 213 214 215 216 216 217 219 221 223 224 226 228 229 232 234 235 236 238 240 242 244 247 248 250 252 252 251 253 254 254 255 257 258 259 260 262 262 263 265 267 270 274 277 278 275 273 275 280 285 290 293 295 299 303 305 306 306 308 311 312 312 312 310 308 306 306 308 310 315 319 323 329 335 341 346 349 348 351 356 358 4 14 10 358
214 214 215 216 218 219 220 221 223 225 227 229 231 232 234 236 237 239 241 242 243 245 246 247 249 251 252 253 255 257 258 259 259 259 259 260 262 263 265 267 268 270 274 277 278 278 278 280 282 284 286 288 292 295 298 301 303 302 301 303 305 307 310 311 308 304 302 302 303 307 310 313 317 322 328 335 340 341 342 347 351 355 2 4 355
Height
1537 1539 1540 1542 1542 1543 1544 1545 1546 1546 1547 1547 1548 1548 1548 1549 1549 1550 1550 1551 1551 1551 1551 1551 1551 1550 1550 1550 1549 1549 1549 1549 1549 1549 1549 1549 1548 1548 1548 1548 1547 1547 1546 1546 1545 1544 1543 1542 1541 1540 1539 1537 1536 1535 1534 1532 1530 1529 1528 1525 1524 1522 1520 1518 1515 1509 1506 1505 1502 1499 1496 1492 1489 1487 1485 1482 1480 1479 1477 1475 1474 1472 1471 1469 1467
1536 1538 1540 1540 1541 1542 1544 1545 1545 1546 1546 1547 1548 1548 1549 1550 1550 1551 1551 1551 1552 1552 1551 1551 1551 1551 1551 1550 1550 1550 1550 1550 1550 1550 1550 1550 1549 1549 1549 1548 1548 1547 1547 1546 1545 1545 1544 1543 1541 1540 1539 1538 1537 1535 1534 1532 1530 1528 1527 1525 1523 1522 1520 1517 1514 1509 1505 1502 1499 1496 1494 1492 1488 1485 1483 1480 1478 1476 1473 1472 1471 1469 1468 1466 1464
1536 1538 1539 1540 1541 1542 1543 1544 1545 1546 1546 1547 1548 1549 1550 1551 1551 1551 1552 1552 1552 1552 1552 1552 1552 1551 1551 1551 1551 1551 1551 1551 1551 1551 1550 1550 1550 1550 1549 1549 1548 1548 1547 1547 1546 1545 1545 1544 1542 1541 1540 1539 1537 1536 1534 1532 1530 1528 1526 1524 1522 1520 1519 1516 1513 1509 1505 1501 1499 1495 1493 1491 1487 1484 1482 1480 1477 1475 1472 1470 1468 1466 1464 1463 1461
1536 1538 1539 1540 1541 1541 1542 1543 1545 1545 1547 1548 1549 1549 1550 1551 1552 1552 1552 1552 1553 1553 1553 1552 1552 1552 1552 1552 1552 1552 1552 1551 1551 1551 1551 1551 1550 1550 1550 1549 1549 1548 1548 1547 1546 1546 1545 1544 1543 1542 1541 1539 1537 1536 1534 1532 1530 1527 1525 1523 1521 1519 1517 1515 1513 1510 1506 1501 1499 1496 1493 1490 1487 1484 1481 1478 1475 1473 1471 1467 1465 1463 1461 1460 1458
1536 1537 1538 1540 1540 1541 1542 1543 1545 1546 1547 1548 1549 1550 1551 1551 1552 1552 1553 1553 1553 1553 1553 1553 1553 1553 1553 1553 1553 1552 1552 1552 1551 1551 1551 1551 1551 1550 1550 1550 1549 1548 1548 1547 1547 1546 1546 1545 1544 1542 1541 1539 1537 1535 1534 1532 1529 1527 1524 1522 1520 1518 1516 1514 1512 1510 1507 1502 1499 1496 1494 1490 1487 1484 1481 1477 1473 1470 1468 1465 1463 1460 1458 1456 1453
1536 1537 1538 1539 1540 1541 1542 1543 1545 1546 1547 1548 1549 1550 1551 1552 1552 1553 1553 1553 1554 1554 1554 1554 1554 1554 1553 1553 1553 1553 1553 1553 1552 1551 1551 1551 1551 1551 1550 1550 1549 1549 1548 1548 1548 1547 1547 1546 1544 1543 1541 1539 1537 1536 1533 1531 1529 1526 1523 1521 1519 1517 1515 1513 1511 1509 1506 1503 1499 1495 1492 1489 1486 1483 1480 1478 1473 1468 1464 1462 1460 1459 1455 1451 1448
1536 1537 1538 1539 1540 1541 1542 1544 1545 1546 1547 1548 1549 1550 1551 1552 1553 1553 1554 1554 1554 1554 1554 1554 1554 1554 1554 1554 1554 1554 1553 1553 1552 1552 1551 1550 1551 1551 1551 1551 1550 1550 1550 1549 1549 1548 1548 1547 1545 1543 1541 1539 1537 1536 1533 1531 1528 1525 1523 1520 1518 1517 1515 1513 1510 1508 1505 1502 1499 1495 1491 1488 1485 1482 1479 1477 1474 1470 1465 1460 1455 1454 1453 1450 1446
1535 1537 1538 1539 1540 1541 1542 1544 1545 1546 1547 1548 1550 1550 1551 1552 1553 1553 1554 1554 1555 1555 1555 1555 1555 1555 1555 1555 1555 1554 1554 1553 1553 1552 1552 1551 1550 1551 1551 1551 1551 1551 1551 1550 1549 1549 1548 1547 1546 1543 1542 1540 1538 1536 1534 1530 1527 1524 1522 1520 1518 1516 1514 1512 1509 1507 1504 1501 1498 1494 1491 1487 1484 1480 1477 1474 1471 1468 1466 1461 1455 1451 1449 1447 1444
1535 1537 1538 1539 1540 1541 1543 1544 1545 1546 1547 1548 1550 1551 1552 1553 1553 1554 1554 1555 1555 1555 1555 1556 1556 1556 1556 1555 1555 1555 1554 1554 1553 1552 1552 1551 1551 1550 1551 1552 1552 1551 1551 1551 1550 1549 1548 1547 1546 1544 1542 1540 1538 1536 1534 1531 1527 1524 1522 1520 1518 1515 1514 1511 1509 1506 1503 1500 1497 1493 1490 1486 1483 1479 1475 1473 1470 1466 1464 1461 1456 1451 1448 1443 1440
1534 1536 1537 1538 1540 1541 1543 1544 1545 1546 1548 1549 1550 1551 1552 1553 1553 1554 1554 1555 1555 1556 1556 1556 1556 1556 1556 1556 1556 1555 1554 1553 1553 1553 1552 1552 1552 1551 1551 1552 1553 1552 1552 1551 1550 1549 1548 1547 1545 1544 1542 1539 1537 1535 1533 1530 1528 1525 1522 1520 1517 1515 1513 1511 1508 1506 1503 1499 1496 1493 1489 1485 1482 1479 1475 1471 1469 1465 1461 1458 1454 1449 1446 1440 1434
1534 1536 1537 1538 1540 1541 1543 1544 1545 1547 1548 1549 1550 1551 1552 1553 1553 1554 1554 1555 1556 1556 1556 1557 1556 1556 1556 1556 1556 1555 1554 1554 1553 1553 1553 1552 1552 1552 1551 1552 1553 1552 1552 1552 1551 1549 1548 1546 1545 1543 1541 1538 1536 1534 1532 1529 1527 1525 1523 1520 1518 1516 1514 1511 1508 1505 1503 1499 1496 1493 1488 1484 1480 1478 1473 1469 1465 1461 1458 1455 1451 1447 1444 1438 1431
1534 1535 1537 1539 1540 1542 1543 1544 1545 1547 1548 1549 1550 1551 1552 1553 1554 1554 1555 1555 1556 1556 1557 1557 1557 1557 1556 1556 1556 1555 1555 1555 1554 1554 1553 1553 1552 1552 1552 1553 1553 1552 1552 1552 1551 1550 1548 1547 1545 1543 1541 1538 1535 1533 1530 1528 1526 1524 1522 1519 1517 1517 1515 1512 1509 1505 1502 1498 1495 1492 1488 1483 1479 1476 1472 1467 1462 1458 1454 1451 1448 1444 1440 1436 1430
1533 1535 1537 1539 1540 1542 1543 1544 1545 1547 1548 1549 1550 1551 1552 1553 1554 1555 1555 1556 1556 1556 1557 1557 1557 1557 1557 1557 1556 1556 1556 1555 1555 1554 1554 1553 1553 1552 1552 1553 1553 1553 1552 1552 1551 1550 1548 1547 1545 1542 1540 1538 1535 1533 1530 1527 1525 1523 1520 1517 1516 1516 1515 1512 1510 1506 1503 1499 1494 1491 1488 1483 1478 1474 1470 1466 1460 1455 1450 1446 1444 1440 1436 1432 1426
1533 1535 1537 1539 1540 1542 1543 1544 1545 1546 1548 1549 1550 1551 1552 1553 1554 1555 1555 1556 1556 1557 1557 1557 1557 1557 1557 1557 1557 1557 1556 1556 1555 1555 1554 1553 1553 1553 1553 1553 1554 1553 1552 1552 1551 1550 1548 1547 1544 1542 1540 1538 1535 1532 1529 1526 1524 1521 1519 1516 1515 1514 1513 1511 1508 1505 1502 1499 1494 1490 1487 1484 1479 1473 1468 1464 1458 1453 1447 1442 1438 1435 1430 1426 1421
1533 1535 1537 1538 1540 1542 1543 1544 1545 1546 1548 1549 1550 1551 1553 1553 1554 1555 1556 1556 1557 1557 1557 1558 1558 1558 1558 1558 1558 1557 1557 1557 1556 1555 1555 1554 1554 1553 1553 1554 1554 1554 1553 1552 1551 1550 1548 1547 1545 1542 1540 1537 1535 1532 1529 1526 1524 1520 1518 1516 1514 1512 1511 1509 1507 1503 1500 1497 1494 1489 1486 1483 1478 1472 1466 1461 1456 1450 1445 1440 1435 1430 1424 1419 1414
1533 1535 1536 1538 1540 1542 1542 1543 1545 1546 1548 1549 1550 1552 1553 1553 1554 1555 1556 1557 1557 1557 1558 1558 1558 1559 1558 1558 1558 1558 1557 1557 1557 1556 1555 1555 1554 1553 1553 1553 1553 1553 1553 1552 1551 1550 1548 1546 1544 1542 1540 1537 1534 1532 1529 1526 1523 1520 1518 1515 1513 1511 1509 1508 1505 1502 1499 1496 1492 1488 1485 1481 1476 1470 1464 1458 1452 1446 1440 1434 1430 1425 1420 1414 1408
1533 1534 1536 1538 1540 1541 1542 1543 1545 1546 1548 1549 1550 1551 1553 1554 1555 1556 1556 1557 1558 1558 1558 1559 1559 1559 1559 1559 1559 1558 1558 1558 1557 1557 1556 1556 1555 1553 1553 1553 1552 1552 1552 1551 1551 1550 1548 1546 1544 1542 1540 1537 1534 1531 1529 1526 1523 1520 1517 1515 1512 1509 1507 1505 1503 1500 1498 1494 1490 1486 1483 1479 1473 1467 1461 1455 1449 1443 1435 1428 1424 1420 1415 1410 1404
1532 1534 1536 1538 1540 1541 1542 1543 1545 1546 1548 1549 1550 1551 1553 1554 1555 1556 1557 1558 1558 1559 1559 1559 1560 1560 1560 1559 1559 1559 1559 1558 1558 1557 1557 1556 1555 1554 1553 1552 1552 1551 1551 1550 1550 1549 1548 1546 1544 1542 1540 1537 1534 1531 1529 1526 1523 1520 1517 1514 1511 1508 1505 1503 1500 1497 1495 1491 1488 1485 1481 1476 1469 1463 1457 1451 1445 1440 1433 1426 1420 1415 1411 1406 1400
1531 1533 1536 1538 1539 1540 1542 1543 1545 1546 1547 1549 1550 1551 1553 1554 1555 1556 1558 1558 1559 1560 1560 1560 1560 1560 1560 1560 1560 1560 1559 1559 1558 1558 1557 1557 1556 1554 1553 1552 1552 1551 1550 1549 1549 1549 1548 1546 1544 1542 1539 1536 1533 1530 1528 1526 1522 1520 1517 1514 1511 1507 1504 1501 1498 1495 1491 1488 1485 1482 1477 1472 1466 1459 1453 1446 1440 1435 1430 1423 1417 1411 1406 1401 1397
1531 1533 1535 1537 1539 1540 1542 1544 1545 1546 1547 1549 1550 1551 1552 1554 1555 1557 1558 1559 1560 1561 1561 1561 1561 1560 1560 1560 1560 1560 1560 1559 1559 1558 1557 1557 1556 1555 1554 1552 1551 1551 1550 1548 1548 1548 1547 1545 1544 1542 1539 1536 1533 1530 1528 1526 1523 1520 1517 1514 1511 1507 1504 1501 1498 1494 1490 1487 1484 1479 1474 1468 1462 1455 1448 1441 1435 1430 1425 1419 1413 1408 1402 1396 1392
1530 1533 1535 1537 1539 1540 1542 1544 1544 1546 1548 1549 1550 1552 1553 1554 1556 1558 1559 1560 1560 1561 1561 1561 1561 1561 1561 1561 1561 1561 1560 1559 1559 1558 1558 1557 1556 1555 1554 1552 1551 1551 1549 1548 1547 1546 1546 1544 1542 1540 1537 1535 1532 1530 1528 1525 1523 1520 1518 1515 1512 1509 1505 1501 1497 1493 1490 1486 1482 1477 1472 1465 1458 1451 1444 1437 1431 1426 1420 1414 1409 1404 1398 1392 1387
1530 1532 1534 1536 1538 1540 1542 1543 1544 1546 1548 1549 1550 1552 1553 1555 1556 1558 1559 1559 1560 1561 1561 1561 1562 1562 1561 1561 1561 1561 1561 1560 1559 1559 1558 1557 1556 1555 1554 1552 1551 1550 1549 1548 1546 1545 1545 1543 1541 1539 1537 1534 1532 1530 1528 1525 1522 1520 1518 1515 1512 1508 1505 1501 1497 1493 1489 1485 1481 1476 1470 1463 1456 1448 1442 1435 1429 1423 1417 1411 1406 1400 1393 1388 1383
1529 1531 1533 1535 1537 1539 1541 1542 1544 1546 1547 1549 1550 1552 1553 1555 1556 1557 1558 1559 1560 1561 1561 1562 1563 1562 1563 1563 1562 1562 1561 1560 1560 1559 1558 1558 1556 1555 1554 1553 1551 1550 1549 1548 1546 1545 1544 1543 1540 1539 1537 1534 1532 1530 1528 1525 1522 1520 1517 1515 1511 1508 1504 1501 1497 1493 1489 1485 1480 1475 1469 1462 1455 1448 1440 1434 1428 1422 1415 1409 1402 1395 1388 1382 1379
1529 1530 1532 1534 1536 1538 1540 1542 1544 1546 1547 1549 1550 1552 1553 1555 1556 1557 1558 1559 1560 1561 1561 1562 1563 1563 1564 1564 1563 1562 1561 1560 1560 1559 1558 1558 1556 1555 1554 1553 1551 1550 1549 1547 1546 1545 1544 1542 1540 1538 1536 1534 1532 1530 1528 1525 1523 1520 1517 1514 1511 1507 1504 1500 1496 1492 1489 1485 1480 1475 1469 1463 1457 1449 1442 1436 1429 1422 1415 1408 1400 1393 1386 1380 1376
1527 1529 1531 1533 1536 1538 1540 1542 1544 1546 1547 1549 1550 1552 1554 1555 1557 1558 1558 1559 1561 1561 1562 1563 1563 1564 1564 1564 1564 1563 1562 1561 1560 1559 1558 1557 1556 1555 1554 1552 1551 1550 1549 1547 1546 1545 1544 1542 1540 1538 1536 1534 1532 1530 1528 1525 1522 1519 1516 1513 1510 1507 1504 1500 1496 1492 1489 1485 1480 1475 1470 1465 1459 1453 1446 1439 1432 1423 1415 1406 1398 1391 1383 1377 1374
1526 1528 1531 1533 1535 1537 1539 1542 1544 1545 1547 1549 1551 1552 1554 1555 1557 1558 1559 1560 1561 1561 1562 1563 1563 1563 1564 1564 1564 1563 1562 1561 1560 1559 1558 1557 1556 1555 1554 1552 1551 1550 1548 1547 1546 1545 1543 1541 1539 1537 1535 1534 1532 1531 1528 1525 1522 1519 1516 1513 1510 1507 1504 1501 1497 1493 1489 1486 1481 1476 1471 1466 1461 1455 1448 1440 1432 1424 1416 1407 1399 1391 1384 1378 1374
1525 1528 1530 1532 1535 1537 1539 1541 1543 1545 1547 1549 1551 1553 1554 1556 1557 1558 1559 1560 1560 1561 1562 1562 1562 1563 1563 1563 1563 1563 1561 1560 1559 1559 1558 1557 1556 1555 1553 1552 1551 1549 1548 1547 1546 1544 1542 1540 1538 1537 1536 1534 1533 1531 1528 1525 1522 1519 1516 1513 1510 1507 1505 1502 1498 1494 1490 1486 1482 1477 1473 1468 1462 1456 1449 1442 1434 1427 1420 1412 1403 1395 1388 1381 1376
1524 1527 1530 1532 1534 1536 1537 1540 1543 1545 1547 1549 1551 1553 1555 1556 1557 1557 1557 1558 1559 1559 1560 1561 1561 1562 1562 1562 1563 1562 1561 1559 1559 1559 1558 1556 1556 1554 1553 1552 1550 1549 1548 1546 1545 1543 1542 1539 1537 1537 1536 1534 1532 1530 1527 1525 1522 1519 1517 1514 1510 1507 1505 1502 1498 1494 1491 1487 1482 1478 1473 1468 1462 1457 1451 1445 1438 1431 1424 1416 1409 1401 1393 1386 1380
1524 1527 1529 1531 1533 1535 1537 1539 1542 1544 1547 1549 1551 1553 1554 1555 1556 1556 1556 1557 1557 1558 1559 1559 1559 1560 1560 1560 1561 1560 1559 1558 1558 1558 1557 1556 1555 1554 1552 1552 1550 1549 1547 1546 1544 1542 1541 1539 1537 1537 1536 1534 1532 1529 1527 1524 1522 1520 1517 1515 1511 1508 1505 1502 1498 1495 1491 1487 1482 1478 1474 1469 1464 1459 1454 1448 1441 1435 1428 1421 1414 1407 1399 1392 1386
1523 1526 1528 1530 1532 1534 1536 1539 1542 1544 1547 1549 1550 1551 1553 1554 1554 1555 1556 1556 1557 1557 1557 1558 1558 1558 1558 1558 1558 1558 1558 1558 1558 1557 1556 1555 1555 1553 1552 1551 1550 1548 1547 1546 1544 1543 1540 1539 1538 1537 1536 1534 1532 1529 1527 1524 1522 1520 1518 1515 1512 1508 1505 1502 1499 1496 1492 1488 1484 1480 1476 1470 1465 1461 1456 1451 1445 1439 1433 1426 1420 1413 1405 1399 1393
1522 1525 1527 1529 1531 1533 1536 1539 1541 1544 1546 1548 1549 1550 1552 1552 1553 1554 1555 1555 1556 1557 1557 1557 1558 1558 1557 1557 1557 1557 1557 1557 1557 1557 1556 1555 1554 1553 1552 1551 1550 1548 1547 1546 1544 1543 1540 1539 1539 1538 1536 1534 1532 1530 1528 1525 1523 1521 1518 1515 1512 1509 1506 1503 1499 1496 1493 1489 1485 1481 1477 1473 1468 1464 1460 1455 1449 1443 1437 1431 1425 1418 1412 1406 1401
1522 1524 1527 1529 1531 1533 1536 1539 1541 1543 1545 1547 1548 1549 1550 1551 1552 1553 1554 1554 1555 1556 1556 1556 1557 1557 1557 1557 1557 1557 1557 1557 1556 1556 1555 1554 1554 1553 1552 1551 1549 1548 1547 1546 1544 1543 1541 1540 1540 1538 1536 1535 1532 1530 1528 1526 1524 1521 1519 1516 1513 1510 1507 1504 1500 1497 1494 1490 1486 1483 1479 1475 1471 1467 1463 1458 1453 1447 1442 1436 1430 1424 1419 1414 1408
1521 1524 1526 1528 1530 1533 1536 1538 1540 1543 1545 1546 1547 1548 1549 1550 1551 1552 1553 1553 1554 1554 1555 1555 1556 1556 1556 1556 1556 1556 1556 1556 1555 1555 1554 1554 1553 1552 1551 1550 1549 1548 1547 1546 1545 1543 1541 1541 1540 1539 1537 1535 1533 1530 1528 1526 1524 1522 1519 1516 1514 1511 1509 1505 1502 1498 1495 1491 1488 1485 1481 1477 1474 1470 1466 1462 1457 1451 1447 1441 1436 1431 1426 1420 1416
1520 1523 1525 1527 1530 1532 1535 1537 1539 1542 1544 1545 1546 1547 1548 1549 1550 1551 1552 1552 1553 1553 1554 1554 1554 1555 1555 1555 1555 1555 1555 1555 1554 1554 1553 1553 1552 1551 1550 1550 1549 1547 1546 1545 1544 1543 1542 1541 1540 1539 1537 1535 1533 1531 1529 1527 1525 1522 1520 1517 1514 1512 1509 1506 1502 1499 1496 1492 1489 1486 1483 1480 1476 1472 1469 1465 1460 1455 1451 1447 1442 1436 1432 1428 1423
1520 1523 1525 1527 1529 1532 1534 1537 1539 1541 1543 1544 1545 1547 1548 1548 1548 1549 1550 1551 1551 1552 1552 1553 1553 1553 1554 1554 1554 1554 1554 1554 1553 1553 1553 1552 1551 1551 1550 1549 1548 1546 1545 1545 1545 1543 1542 1542 1540 1539 1537 1535 1533 1531 1529 1527 1525 1523 1520 1517 1515 1512 1510 1506 1503 1500 1497 1493 1490 1487 1485 1482 1479 1475 1472 1468 1464 1459 1455 1452 1448 1443 1438 1434 1430
1519 1522 1525 1527 1529 1531 1534 1536 1538 1540 1542 1543 1544 1546 1547 1548 1548 1548 1549 1549 1550 1550 1551 1551 1552 1552 1552 1552 1553 1553 1553 1553 1552 1552 1552 1551 1550 1550 1549 1548 1547 1545 1544 1545 1545 1544 1542 1541 1540 1538 1537 1535 1533 1531 1529 1527 1525 1523 1520 1518 1515 1513 1510 1507 1504 1502 1499 1495 1492 1489 1486 1483 1480 1478 1474 1471 1468 1464 1460 1457 1454 1449 1445 1441 1437
1519 1522 1524 1526 1529 1531 1533 1536 1538 1539 1541 1542 1543 1544 1545 1546 1547 1547 1548 1548 1549 1549 1549 1549 1550 1550 1551 1551 1551 1551 1551 1551 1551 1550 1550 1550 1549 1548 1548 1547 1546 1545 1544 1544 1544 1543 1541 1541 1540 1538 1536 1535 1533 1531 1529 1527 1525 1523 1521 1518 1516 1514 1511 1508 1506 1503 1500 1497 1493 1490 1487 1484 1482 1480 1477 1473 1470 1467 1464 1461 1458 1455 1451 1448 1444
1520 1522 1524 1526 1528 1530 1532 1535 1537 1538 1539 1541 1542 1543 1544 1545 1546 1546 1547 1548 1548 1548 1549 1548 1548 1548 1548 1549 1550 1550 1549 1549 1549 1549 1549 1548 1548 1547 1546 1546 1545 1544 1543 1544 1543 1542 1541 1540 1539 1537 1536 1534 1533 1531 1529 1527 1525 1523 1521 1518 1516 1514 1512 1509 1507 1504 1501 1498 1495 1492 1489 1486 1484 1482 1480 1476 1473 1471 1468 1465 1462 1460 1456 1453 1449
1520 1522 1524 1526 1528 1530 1532 1534 1535 1537 1538 1539 1540 1541 1542 1543 1544 1545 1546 1546 1547 1547 1547 1547 1547 1546 1546 1547 1547 1547 1547 1547 1547 1547 1547 1546 1546 1545 1545 1544 1543 1543 1543 1543 1542 1541 1540 1539 1538 1536 1535 1534 1532 1530 1529 1527 1525 1523 1521 1519 1516 1514 1512 1510 1507 1505 1502 1499 1497 1494 1491 1488 1486 1484 1482 1479 1476 1473 1471 1468 1466 1464 1461 1458 1455
1519 1521 1523 1525 1526 1528 1530 1532 1534 1535 1536 1537 1538 1540 1541 1541 1542 1543 1544 1544 1545 1545 1545 1545 1546 1546 1545 1545 1545 1545 1545 1545 1545 1545 1545 1544 1544 1544 1543 1543 1542 1542 1542 1541 1540 1540 1539 1538 1537 1535 1534 1533 1531 1530 1528 1526 1525 1523 1521 1519 1517 1515 1513 1510 1508 1506 1503 1500 1498 1495 1492 1490 1487 1485 1483 1481 1478 1476 1474 1471 1469 1467 1465 1462 1460
1519 1521 1522 1523 1525 1527 1529 1531 1532 1533 1534 1535 1536 1538 1539 1540 1540 1541 1542 1542 1543 1543 1543 1543 1544 1544 1545 1544 1543 1543 1543 1543 1543 1543 1543 1543 1543 1543 1542 1542 1541 1541 1540 1540 1539 1538 1537 1536 1535 1534 1533 1531 1530 1529 1527 1526 1524 1522 1521 1519 1517 1515 1513 1511 1509 1507 1504 1502 1499 1497 1494 1492 1489 1487 1484 1482 1480 1478 1476 1473 1471 1470 1468 1466 1464
1518 1520 1520 1522 1524 1525 1527 1529 1530 1531 1532 1533 1534 1535 1537 1538 1538 1539 1540 1540 1541 1541 1541 1542 1542 1542 1543 1542 1542 1542 1541 1541 1542 1541 1541 1541 1541 1540 1540 1540 1539 1539 1538 1538 1537 1536 1536 1535 1534 1533 1531 1530 1529 1528 1526 1525 1524 1522 1520 1519 1517 1515 1514 1512 1510 1508 1505 1503 1501 1498 1495 1493 1491 1489 1486 1484 1482 1480 1478 1475 1473 1471 1470 1469 1467
1517 1518 1519 1521 1522 1524 1526 1527 1529 1530 1531 1531 1532 1533 1534 1535 1536 1537 1537 1538 1538 1539 1539 1539 1540 1540 1540 1540 1540 1540 1540 1539 1539 1539 1538 1538 1538 1538 1538 1537 1537 1537 1536 1536 1535 1535 1534 1533 1532 1531 1530 1529 1528 1527 1526 1524 1523 1521 1520 1519 1517 1515 1514 1512 1510 1508 1506 1504 1502 1499 1497 1494 1492 1490 1488 1486 1484 1482 1480 1478 1476 1473 1472 1470 1469
1516 1517 1518 1519 1520 1522 1524 1525 1526 1528 1529 1529 1530 1531 1532 1533 1534 1534 1535 1535 1535 1536 1536 1537 1537 1538 1538 1538 1538 1538 1537 1537 1537 1536 1536 1535 1535 1535 1535 1535 1535 1534 1534 1534 1533 1533 1532 1531 1531 1530 1529 1527 1527 1525 1524 1523 1522 1521 1520 1518 1517 1515 1513 1512 1511 1508 1506 1504 1502 1500 1498 1496 1493 1491 1489 1487 1485 1483 1481 1480 1478 1476 1474 1472 1471
1514 1516 1516 1517 1518 1520 1521 1523 1524 1525 1527 1527 1528 1529 1530 1530 1531 1532 1532 1533 1533 1533 1533 1534 1534 1534 1535 1535 1534 1534 1534 1534 1534 1534 1533 1533 1532 1532 1532 1532 1532 1532 1532 1531 1531 1531 1530 1529 1529 1528 1527 1526 1525 1524 1523 1522 1521 1520 1519 1518 1517 1515 1513 1512 1511 1509 1507 1505 1503 1501 1499 1497 1495 1493 1491 1488 1486 1485 1483 1481 1480 1478 1476 1475 1473
1512 1514 1515 1516 1516 1517 1518 1520 1521 1523 1524 1525 1525 1526 1527 1528 1528 1529 1529 1530 1530 1531 1531 1531 1531 1531 1531 1531 1531 1531 1531 1531 1531 1530 1530 1530 1529 1529 1529 1529 1530 1530 1529 1529 1529 1528 1528 1527 1527 1526 1526 1525 1524 1523 1522 1521 1520 1519 1518 1517 1516 1514 1512 1511 1510 1509 1507 1505 1503 1501 1500 1498 1496 1494 1492 1490 1488 1486 1484 1483 1481 1480 1477 1476 1476
1511 1512 1513 1514 1515 1515 1516 1517 1519 1520 1521 1522 1523 1523 1524 1525 1525 1526 1526 1527 1528 1528 1528 1529 1529 1529 1529 1529 1529 1528 1528 1528 1528 1527 1528 1527 1527 1527 1527 1527 1527 1527 1527 1527 1527 1526 1525 1525 1524 1524 1524 1523 1522 1522 1521 1520 1519 1518 1517 1515 1515 1513 1511 1510 1509 1508 1507 1505 1504 1502 1500 1498 1496 1495 1493 1491 1489 1487 1486 1484 1483 1481 1479 1478 1477
1509 1510 1511 1512 1513 1514 1515 1515 1516 1517 1518 1519 1520 1521 1521 1522 1523 1523 1524 1524 1524 1525 1525 1525 1526 1526 1526 1526 1526 1526 1526 1525 1525 1525 1525 1525 1525 1525 1525 1525 1525 1525 1524 1524 1523 1523 1522 1521 1521 1521 1521 1520 1520 1519 1519 1518 1517 1516 1515 1514 1513 1512 1510 1509 1508 1507 1506 1505 1503 1502 1500 1498 1497 1495 1494 1492 1490 1488 1487 1485 1484 1482 1480 1479 1478
1507 1508 1509 1510 1511 1512 1512 1513 1514 1515 1516 1517 1518 1518 1519 1520 1520 1521 1521 1522 1522 1522 1522 1522 1522 1523 1523 1523 1523 1524 1524 1524 1523 1523 1522 1522 1522 1522 1522 1522 1522 1521 1521 1520 1520 1519 1518 1517 1517 1517 1517 1517 1517 1517 1516 1516 1515 1514 1513 1512 1511 1510 1509 1508 1507 1506 1505 1504 1502 1501 1500 1498 1497 1495 1494 1492 1491 1489 1488 1486 1485 1483 1481 1480 1479
1504 1505 1506 1507 1508 1509 1510 1511 1512 1513 1513 1514 1515 1515 1516 1517 1517 1518 1518 1519 1519 1519 1520 1520 1520 1520 1519 1520 1520 1520 1520 1520 1520 1520 1520 1520 1520 1519 1519 1519 1519 1518 1518 1517 1517 1516 1516 1515 1515 1514 1514 1514 1514 1513 1513 1513 1513 1512 1511 1510 1509 1508 1507 1506 1505 1504 1503 1502 1501 1500 1499 1497 1496 1495 1493 1492 1491 1489 1488 1487 1485 1483 1482 1481 1480
1502 1503 1504 1505 1506 1507 1508 1509 1509 1510 1511 1512 1512 1513 1513 1514 1514 1515 1515 1515 1516 1516 1516 1517 1517 1517 1517 1517 1517 1517 1517 1517 1517 1517 1517 1517 1517 1517 1517 1517 1516 1516 1515 1515 1514 1514 1514 1513 1512 1511 1511 1511 1510 1510 1510 1510 1510 1509 1508 1507 1506 1505 1505 1504 1503 1502 1501 1500 1499 1498 1497 1496 1495 1494 1493 1492 1490 1489 1488 1487 1485 1484 1482 1481 1480